Theta_e
361 361 364 366 366 365 366 366 365 366 366 366 367 367 367 366 367 367 366 366 366 365 365 365 365 365 366 366 366 366 366 366 366 366 366 365 365 365 365 365 365 365 364 363 364 364 363 364 364 364 365 364 366 366 366 365 365 365 365 366 366 366 366 366 365 365 364 363 362 362 361 361 361 362 362 362 362 362 361 361 361 357 357 358 360
358 362 363 364 366 366 366 366 366 367 367 368 368 366 365 365 366 367 367 366 366 365 365 365 365 365 365 365 365 365 366 366 365 365 365 365 364 364 363 363 363 363 364 366 364 365 366 366 365 365 364 364 365 366 366 365 364 365 365 365 366 365 366 366 365 365 364 363 362 361 361 360 361 361 361 361 361 361 361 361 361 358 356 360 360
360 361 363 364 366 366 366 366 365 367 367 367 367 366 365 365 366 366 366 365 364 365 364 364 365 365 365 365 365 365 365 365 365 365 365 365 365 366 365 365 364 365 364 364 363 364 364 363 363 363 364 362 363 363 364 365 364 363 364 365 365 364 364 365 365 365 364 363 362 362 361 361 361 361 361 360 360 361 361 361 362 360 357 361 360
359 361 363 365 366 366 366 366 366 366 366 366 366 367 367 367 367 366 366 365 365 365 365 365 364 365 365 365 365 365 365 364 364 364 365 364 364 364 364 364 364 363 363 363 362 361 362 362 362 362 361 361 361 362 363 364 364 364 364 364 364 363 363 364 365 365 365 364 363 362 360 358 359 361 361 360 360 361 362 361 361 361 360 360 360
358 360 363 364 364 366 367 366 366 366 367 367 367 367 367 366 365 365 365 365 365 364 365 365 364 364 364 365 365 365 365 364 364 364 364 363 364 364 364 363 363 362 362 362 363 361 361 361 361 361 360 360 360 361 361 362 363 363 364 362 362 362 361 362 362 364 364 364 363 361 359 359 359 360 360 360 360 362 361 361 360 360 360 360 359
356 359 361 361 363 365 367 366 367 367 367 367 366 366 366 366 367 367 366 366 366 365 365 365 364 364 365 364 364 364 364 365 365 364 363 363 363 363 363 362 363 362 361 361 361 361 361 360 361 360 360 360 360 360 361 362 362 363 363 363 362 361 361 362 362 362 362 362 361 364 359 359 359 360 360 361 361 361 361 360 360 359 359 359 360
356 358 358 359 362 365 367 367 367 367 367 366 366 366 365 366 365 366 366 365 366 365 364 365 363 364 365 365 364 365 365 365 364 364 364 363 363 362 361 362 361 361 361 360 359 359 359 359 359 359 360 360 359 360 360 360 361 360 361 363 362 360 360 360 360 362 362 361 364 364 357 359 359 360 360 361 361 361 361 360 359 359 360 360 359
356 356 358 359 363 366 367 367 367 367 366 366 366 366 366 365 365 363 363 365 366 366 365 364 365 365 365 365 364 365 365 364 363 363 363 363 362 362 361 361 361 360 360 360 359 359 359 359 359 359 359 359 360 361 359 360 360 361 361 362 362 361 361 360 360 362 362 363 367 363 359 359 359 360 360 361 361 361 361 361 359 359 360 359 360
354 356 358 360 363 367 366 366 366 366 366 366 366 366 365 366 365 365 365 365 365 365 364 364 365 365 365 364 364 364 364 363 363 363 363 362 362 362 361 361 360 359 359 359 358 358 358 359 359 359 358 358 358 359 358 360 360 360 359 359 361 361 361 361 361 361 363 364 363 366 364 361 360 359 361 361 361 360 361 360 359 359 359 360 359
356 358 359 362 363 368 367 366 366 365 365 366 366 365 365 365 366 365 366 366 366 365 365 364 364 365 365 365 364 363 363 362 362 362 363 362 362 362 362 361 360 360 359 358 358 359 359 361 361 359 360 360 359 359 359 360 360 359 356 358 360 359 359 360 361 361 364 359 356 359 365 361 360 361 361 361 361 361 361 360 358 358 358 359 358
358 359 359 362 364 368 367 367 366 365 365 365 365 365 365 365 365 364 365 365 364 364 363 363 364 365 364 364 364 364 363 363 363 363 362 362 362 362 362 362 360 359 359 359 359 359 360 361 361 359 360 360 359 359 360 359 359 358 357 357 358 358 359 359 359 362 359 357 356 354 358 361 360 359 361 360 360 361 361 360 360 360 359 358 359
358 359 361 364 369 369 368 367 366 366 366 366 365 365 365 365 364 364 364 364 363 364 364 364 364 364 364 364 364 364 362 362 362 362 362 362 363 362 361 361 360 360 361 359 359 359 359 361 361 360 360 360 360 359 359 359 359 358 358 358 358 358 358 359 362 361 358 352 352 355 353 362 362 360 361 360 360 361 360 360 360 360 360 358 359
358 360 363 364 366 369 368 367 367 367 367 366 366 365 365 365 365 365 365 364 364 364 364 364 365 365 365 365 364 363 363 363 362 362 362 362 363 362 362 362 362 360 360 360 360 360 360 361 361 360 360 360 359 359 359 359 359 359 358 358 358 358 358 359 358 357 356 355 354 355 352 357 363 362 361 360 360 360 360 360 360 360 360 359 359
358 359 361 362 364 372 369 368 368 367 367 366 366 365 365 365 365 365 364 364 364 364 364 366 365 365 365 365 365 364 363 363 363 363 363 363 363 362 362 361 361 361 360 360 360 361 360 360 361 361 360 359 359 359 359 359 358 359 358 356 357 357 357 358 358 356 355 356 356 356 354 358 361 361 362 360 361 361 361 361 360 360 360 360 359
355 357 360 363 365 366 371 368 368 367 366 366 365 365 365 365 365 364 364 364 364 363 364 365 365 365 365 366 365 365 364 365 365 365 365 365 363 363 362 361 361 362 361 362 360 361 360 360 360 361 360 360 359 359 358 359 359 358 359 357 358 358 359 356 357 357 355 354 355 357 359 359 359 361 361 360 360 361 361 361 361 360 361 360 360
355 358 361 361 364 366 366 369 367 366 365 366 366 366 366 365 365 365 364 364 364 364 364 364 364 364 364 364 364 364 364 363 362 362 363 363 362 363 364 363 363 361 361 361 362 361 361 360 361 361 360 360 360 359 359 358 359 359 358 356 357 359 359 358 356 356 355 351 354 357 359 359 360 361 362 362 361 361 360 361 360 360 361 360 360
356 359 359 361 362 363 364 365 365 366 366 366 366 367 366 365 365 365 365 365 364 364 365 364 364 363 364 364 364 364 364 364 364 363 363 362 363 363 365 364 364 363 364 363 362 362 361 361 361 361 360 360 360 358 358 358 358 359 359 358 357 359 359 358 356 354 354 353 357 355 358 360 361 362 363 362 361 361 360 361 360 360 360 360 360
355 356 357 359 361 362 363 363 365 365 365 366 366 366 366 366 365 365 365 365 365 364 364 364 364 364 365 365 365 364 365 365 364 364 364 363 363 362 362 363 364 364 364 364 362 362 361 360 361 361 360 360 359 359 359 358 358 358 359 358 357 358 359 357 354 355 356 357 356 354 359 359 362 362 363 362 361 361 361 361 360 359 360 360 360
355 355 355 357 359 361 361 364 366 364 365 365 366 366 366 366 366 366 366 366 365 365 365 365 365 365 366 366 366 366 366 365 365 365 364 364 364 363 363 363 364 364 364 363 363 363 361 360 362 361 360 361 360 359 359 359 358 358 359 359 358 357 358 355 353 358 355 357 355 358 357 361 361 362 362 361 361 361 361 360 360 360 361 360 360
353 354 354 355 358 359 361 362 364 363 365 364 366 366 366 367 366 367 366 366 366 365 365 365 366 366 367 367 367 366 366 365 366 364 365 365 366 364 364 364 363 365 365 364 364 363 363 361 361 361 361 361 361 360 359 360 359 359 359 359 360 358 356 357 357 354 352 354 358 357 360 361 360 361 362 361 361 361 360 360 360 360 360 360 360
351 353 356 355 357 358 359 361 362 362 362 363 365 366 366 367 367 367 367 366 366 366 366 366 366 366 366 368 367 366 366 366 365 364 366 365 366 366 365 365 364 365 366 365 365 365 364 363 362 362 362 361 361 360 360 359 360 359 359 359 360 358 356 355 356 356 354 355 358 357 362 361 363 362 363 362 361 361 360 361 361 361 361 360 360
349 352 354 355 355 355 357 359 361 361 361 362 363 365 367 367 366 366 366 365 365 365 365 365 368 366 367 367 367 366 364 367 365 368 365 367 366 366 366 367 366 365 366 367 366 366 365 365 364 364 362 362 361 361 361 360 361 359 359 359 358 356 355 354 356 356 354 357 358 358 362 363 364 360 363 362 362 361 360 359 361 362 361 361 361
348 351 352 353 354 354 357 358 359 360 361 363 363 365 365 366 366 366 366 366 366 366 366 366 366 367 366 364 369 368 364 365 369 365 367 369 366 368 369 369 369 367 367 367 367 367 365 366 365 364 363 362 361 365 363 363 362 360 359 358 357 357 356 356 357 357 355 357 355 359 361 362 362 363 363 362 362 362 361 360 361 362 361 360 361
347 350 349 351 354 353 355 358 359 360 361 364 365 363 364 366 363 364 364 364 365 365 366 367 367 367 363 367 366 364 364 370 369 363 364 363 366 371 370 370 371 370 368 365 368 368 366 365 363 364 363 361 361 361 362 361 360 361 362 360 357 357 356 357 356 355 355 358 358 359 362 363 361 363 363 363 362 361 361 360 359 360 361 360 360
347 347 350 349 352 351 354 357 360 360 361 362 362 361 364 362 362 362 363 363 363 364 363 364 366 366 365 367 364 363 361 364 363 360 360 369 367 369 365 365 365 362 363 362 362 362 363 364 362 362 363 361 360 361 361 359 360 358 359 362 359 356 356 357 358 357 358 357 359 360 363 362 362 363 363 363 363 361 361 361 360 359 361 360 361
347 346 348 349 351 351 353 356 358 358 360 361 361 363 365 361 362 362 362 362 363 363 363 364 363 365 362 360 360 359 358 361 362 363 364 369 365 368 366 364 365 358 361 362 363 362 364 363 359 360 362 361 361 363 362 361 360 359 358 359 357 358 358 358 356 355 357 358 359 362 364 362 363 363 363 363 363 361 361 361 361 360 361 362 361
344 346 349 350 350 350 351 354 355 356 358 360 363 362 361 362 361 360 359 359 361 360 360 360 361 363 361 359 354 355 354 356 359 364 363 362 364 371 364 365 363 363 366 363 362 360 363 363 360 359 356 360 360 362 361 361 359 358 358 358 359 358 357 359 357 358 358 358 361 364 364 363 363 364 363 363 362 361 361 361 361 362 361 361 361
344 346 347 349 350 349 353 352 352 356 358 356 360 359 360 358 357 363 361 360 360 357 353 355 358 363 363 363 361 356 351 351 351 359 358 356 358 358 357 356 361 362 363 362 360 363 364 362 363 362 360 360 361 360 359 361 360 360 359 358 358 357 358 356 357 358 357 359 360 363 363 362 363 364 363 362 362 361 361 361 360 361 361 362 361
338 345 346 346 347 351 353 352 350 355 355 355 355 357 361 359 359 358 360 362 362 353 354 365 359 357 357 363 359 348 348 349 350 360 360 360 359 359 359 359 359 363 362 364 363 361 361 360 360 359 359 357 360 359 359 359 360 359 358 357 358 357 358 357 357 358 359 358 359 360 363 363 363 364 363 362 362 361 361 361 360 360 361 362 362
340 345 344 346 345 351 350 352 351 353 353 355 357 358 360 361 360 361 362 367 358 366 363 352 352 355 354 357 350 350 348 345 345 353 354 359 362 360 361 362 362 363 362 361 365 364 361 358 358 356 356 357 357 358 359 359 360 359 358 358 358 358 359 358 361 355 360 357 358 359 363 364 364 364 364 362 362 362 361 361 361 360 360 361 362
342 342 342 343 347 348 348 351 350 359 353 350 354 359 361 361 361 359 361 359 359 365 367 359 351 350 359 363 366 360 351 341 342 357 361 367 368 367 365 363 362 363 363 362 364 362 361 359 356 356 354 354 354 359 360 358 361 358 357 358 359 360 358 358 357 360 355 354 357 361 362 364 364 363 364 363 362 362 362 362 362 361 360 360 361
346 342 343 344 343 347 344 351 348 352 352 347 357 355 358 359 365 363 357 355 363 360 352 353 359 351 357 368 365 358 363 350 352 353 356 366 365 368 366 365 364 361 362 362 365 364 361 358 361 359 357 356 358 359 360 360 360 359 359 359 362 359 358 359 360 357 356 355 352 355 361 360 363 363 363 363 362 362 362 362 362 362 361 360 360
348 360 348 342 342 345 348 354 349 350 350 348 350 355 356 356 353 356 358 350 360 363 352 352 360 359 356 364 367 359 368 353 359 364 364 366 368 363 365 367 364 363 362 364 362 360 361 356 357 360 357 356 358 358 359 358 357 358 357 358 358 356 357 359 359 359 359 356 358 354 357 360 360 361 364 363 362 362 362 361 361 362 362 361 361
350 349 349 341 345 349 355 353 355 349 355 351 356 356 356 354 356 353 361 356 354 353 350 351 355 362 363 365 360 365 364 367 364 366 368 363 360 363 363 366 365 364 364 364 364 362 360 359 356 356 354 353 352 354 358 357 359 358 356 354 356 359 364 358 359 358 358 355 356 357 359 360 360 359 360 363 364 363 362 362 362 362 362 362 362
355 356 352 353 353 360 359 354 359 355 353 359 358 359 359 353 353 352 351 360 360 354 346 361 353 352 366 366 373 372 371 367 370 371 366 364 359 364 363 369 366 364 365 364 363 362 360 358 362 356 356 353 353 355 353 353 352 355 354 353 356 357 362 358 360 361 358 358 360 358 362 364 359 359 360 359 363 364 363 362 362 362 362 363 363
361 360 355 357 356 357 359 351 362 361 356 358 360 365 360 357 355 355 360 361 355 354 352 357 352 359 368 371 375 373 372 372 373 373 367 365 360 359 367 365 364 364 365 364 363 360 358 357 359 358 354 354 354 352 351 350 352 350 356 356 355 356 356 358 357 357 361 361 360 357 358 358 358 357 360 359 360 361 364 362 362 363 362 363 363
362 363 357 357 358 361 361 357 356 356 360 356 365 364 370 360 367 356 351 365 357 360 358 358 358 361 365 366 370 372 371 373 372 372 369 364 362 359 365 362 361 362 361 360 358 359 358 355 357 357 354 353 355 352 353 350 350 350 353 353 353 350 351 354 356 359 363 360 359 358 358 356 357 359 359 358 359 360 364 365 363 363 363 363 363
362 363 364 365 363 365 363 366 365 365 367 365 366 365 367 370 363 362 365 364 363 357 364 358 362 367 368 364 367 373 373 371 371 370 368 365 365 360 357 363 359 358 359 354 359 358 355 352 351 353 352 353 353 349 352 350 350 349 352 353 353 352 353 355 358 360 359 358 360 360 356 358 358 359 361 358 357 358 360 363 365 364 365 364 364
363 365 367 368 367 367 368 369 368 367 369 368 367 366 367 368 365 363 363 365 367 358 372 368 366 364 367 370 372 373 373 370 369 369 369 365 362 362 358 355 357 361 354 355 355 355 354 356 351 348 348 348 351 352 353 353 350 349 350 352 351 353 354 356 357 357 357 355 358 357 358 358 359 358 359 357 360 358 359 360 362 361 361 365 365
364 366 368 368 368 368 369 373 369 370 369 368 364 364 362 359 356 360 360 364 365 364 367 366 364 368 365 371 371 373 369 369 365 367 365 361 357 363 359 354 357 358 355 354 355 355 353 352 354 351 350 351 354 355 355 353 351 349 349 351 350 352 353 353 355 354 355 357 357 359 356 358 359 357 354 353 358 356 359 359 363 362 361 363 366
365 365 365 365 367 365 362 362 371 370 372 365 360 358 357 357 359 357 360 362 364 363 364 366 366 363 368 366 366 371 367 368 366 366 363 358 357 363 362 356 356 357 358 356 354 354 355 354 353 351 348 348 350 348 356 355 349 347 350 350 350 353 352 352 354 354 354 356 358 357 358 355 357 356 355 356 357 357 360 361 361 362 361 359 361
362 363 363 363 366 366 365 362 365 364 364 366 369 363 362 359 359 358 359 360 361 361 361 364 365 364 366 364 365 366 366 367 366 365 365 361 361 363 361 360 358 357 357 357 358 358 355 354 351 347 350 351 348 350 353 351 345 343 342 343 347 349 351 351 350 351 354 354 356 355 355 355 357 359 359 363 361 360 358 357 358 361 361 360 359
364 363 364 364 364 364 364 364 364 361 363 365 367 366 368 366 362 361 359 363 369 367 364 365 367 364 361 361 363 365 367 366 365 366 365 362 363 363 360 363 361 361 361 359 359 356 351 350 349 350 351 350 350 354 354 353 345 347 346 341 339 338 344 347 350 351 354 355 354 354 353 353 354 358 359 361 359 359 359 360 356 358 361 361 360
355 357 359 362 361 362 361 361 361 362 363 365 366 367 368 369 369 367 366 365 362 363 362 364 362 360 358 359 362 365 364 362 362 363 363 362 360 361 361 362 362 364 361 359 356 355 352 346 347 354 355 348 351 353 355 354 352 346 336 338 340 338 334 338 343 350 354 354 354 353 355 354 356 358 360 359 357 358 357 359 358 359 359 360 361
351 349 350 352 354 355 357 356 356 357 360 364 365 366 366 365 366 365 364 361 361 361 358 357 357 359 357 358 359 362 363 362 363 365 363 361 362 361 362 362 360 362 362 357 355 352 351 354 353 357 356 354 346 352 355 355 353 354 346 341 337 334 334 339 342 344 351 348 350 353 354 356 356 357 358 359 360 358 358 356 357 359 361 361 361
350 351 347 350 354 354 354 353 355 355 355 359 361 364 363 360 359 356 354 354 353 353 352 353 356 355 357 363 363 363 364 363 364 365 363 362 362 362 362 362 361 361 359 360 356 354 351 349 353 352 350 354 352 347 351 355 355 353 350 349 344 337 337 343 341 335 348 350 350 351 354 355 356 356 357 357 358 356 357 356 357 357 358 359 361
352 356 354 351 352 351 350 353 354 354 356 358 360 360 356 356 356 356 356 354 354 356 361 362 361 362 364 359 363 365 365 363 363 365 364 364 362 362 362 361 361 361 362 359 355 347 341 348 353 352 347 354 356 348 343 351 352 353 350 352 350 347 346 340 334 338 335 345 347 349 350 354 355 355 355 355 357 356 356 357 357 358 359 361 361
355 357 355 351 350 350 350 354 356 354 356 356 356 357 355 355 354 354 352 351 351 352 355 361 362 362 361 358 360 362 362 365 363 363 363 363 362 363 363 362 361 360 360 354 349 349 351 351 355 361 354 358 353 348 344 341 341 351 350 349 349 349 346 345 347 342 337 334 340 347 350 350 353 353 354 355 356 356 355 356 356 358 359 360 361
357 355 356 356 358 357 356 356 355 354 354 351 351 350 352 353 352 351 348 352 353 353 356 361 360 361 356 360 360 360 361 362 361 363 363 362 362 363 362 362 360 360 358 352 350 343 346 350 357 357 360 355 348 348 352 344 338 335 343 357 350 349 352 353 349 344 338 337 337 339 343 351 351 351 352 354 356 358 358 357 357 357 358 359 359
356 358 356 357 357 357 357 356 354 355 354 352 352 349 350 351 350 347 347 350 355 354 355 356 358 359 358 355 359 360 360 359 360 364 362 362 363 363 362 358 356 351 352 352 347 348 349 357 351 344 349 355 352 342 340 344 340 341 335 340 345 348 345 346 346 346 345 344 339 339 341 341 342 348 352 354 355 356 357 357 359 358 358 359 360
354 355 355 356 357 356 355 354 355 355 355 355 354 353 353 350 348 348 349 348 349 352 354 354 357 357 353 352 355 357 361 359 359 359 360 359 359 361 358 353 351 353 351 349 348 346 344 343 341 347 351 353 343 343 341 340 341 346 336 339 340 334 341 344 344 344 343 343 342 340 341 341 342 345 348 352 354 355 357 359 358 358 359 359 360
Wind_Speed
11 14 12 12 11 13 14 15 15 15 14 13 13 12 11 11 13 13 13 12 12 12 11 11 11 11 11 10 10 10 9 9 9 9 8 8 8 7 8 7 7 8 7 7 8 8 6 8 8 8 9 10 10 8 8 7 6 6 6 7 8 9 10 11 12 11 11 11 10 10 11 11 11 9 8 9 10 10 12 11 10 8 8 10 15
15 13 11 12 12 13 14 15 16 15 15 14 14 13 12 8 12 13 13 12 12 12 11 11 10 10 9 9 9 9 8 8 8 7 7 7 6 7 6 6 6 5 7 8 6 8 8 9 8 8 9 9 9 8 8 7 6 5 6 6 8 8 10 10 10 11 11 10 10 9 11 11 10 9 8 8 8 9 9 9 10 6 5 12 13
15 14 12 13 15 14 14 15 16 16 14 14 14 14 14 11 12 12 12 12 12 11 11 11 10 10 9 8 8 8 7 7 7 7 7 6 7 7 7 6 6 6 5 5 6 7 7 7 7 8 9 8 7 7 7 7 5 6 6 5 6 7 8 9 9 10 11 10 9 9 11 12 10 8 8 8 8 8 8 8 10 11 7 13 12
16 13 12 13 15 15 14 15 16 16 16 16 15 15 14 13 12 12 11 11 11 10 10 10 10 10 9 9 8 7 6 6 6 5 6 6 6 6 6 5 4 4 4 3 4 5 6 5 6 6 6 6 5 5 6 6 5 5 5 4 5 7 7 7 7 8 10 10 10 8 4 6 7 8 8 7 8 8 8 9 11 12 13 11 13
16 14 13 12 13 14 14 15 15 15 15 15 14 14 13 13 13 12 11 10 10 10 10 9 9 9 8 8 8 7 7 7 6 5 5 6 6 5 5 5 3 3 2 2 4 3 4 4 3 3 3 3 3 3 4 4 5 5 4 2 3 5 6 6 6 7 7 8 8 7 4 6 4 8 8 8 8 9 9 10 12 12 12 13 12
16 14 13 13 13 12 13 14 15 14 14 14 13 13 13 13 12 12 10 9 10 9 8 8 8 8 9 7 7 7 7 7 7 6 5 6 6 6 5 4 3 2 2 0 1 1 1 3 4 2 1 1 2 2 4 4 4 4 4 1 2 3 5 5 5 5 5 5 4 1 7 6 4 4 8 8 8 9 10 11 12 12 12 14 12
18 14 13 13 11 11 12 14 14 14 13 13 13 13 13 13 12 12 10 9 10 11 8 9 9 7 8 8 8 8 8 8 7 7 7 5 6 4 4 3 2 0 1 1 2 2 2 2 2 1 2 2 2 1 3 3 3 3 3 2 1 1 2 4 3 3 4 3 1 1 4 6 4 3 8 8 9 9 11 11 11 11 12 12 13
14 13 13 12 11 13 13 15 14 13 13 13 13 13 13 13 14 13 9 10 10 10 10 10 10 9 9 9 8 8 8 7 7 6 6 6 5 4 4 3 3 2 1 1 2 1 3 2 3 3 4 4 3 5 4 4 5 5 3 4 1 2 1 1 2 2 3 1 2 2 3 5 5 3 7 9 9 10 10 11 10 11 11 11 12
14 14 13 13 13 16 14 14 14 14 13 13 13 13 13 12 13 14 12 11 11 11 10 10 10 10 9 9 8 7 7 7 6 6 6 5 5 4 3 3 2 2 2 2 2 2 2 3 3 3 4 4 5 5 4 5 6 5 1 2 4 3 1 1 2 3 1 2 4 2 2 5 6 4 7 9 10 10 11 10 9 10 10 11 11
15 14 13 11 12 16 15 14 14 14 13 13 13 13 12 12 12 11 11 11 11 10 10 11 10 10 9 9 8 8 7 7 6 6 6 5 5 5 4 4 2 2 3 2 3 4 3 4 4 4 4 4 5 5 4 6 6 4 4 5 3 4 2 1 2 2 0 4 4 6 1 6 6 4 7 9 10 10 11 11 8 7 6 11 10
16 13 12 12 15 16 15 14 14 14 14 13 13 12 12 12 11 11 11 11 11 10 10 10 10 9 9 9 9 8 7 7 6 6 5 4 5 4 4 3 2 1 2 2 3 3 4 4 5 5 5 5 5 5 6 7 7 6 5 7 5 5 4 2 2 1 3 4 3 3 6 8 3 5 9 10 10 10 10 9 10 10 9 9 12
14 14 13 12 16 16 15 14 14 14 13 13 12 12 11 11 11 11 11 10 10 10 10 10 10 9 9 9 9 8 7 8 6 6 5 4 4 4 4 3 2 2 4 3 3 3 3 4 5 5 5 5 5 5 6 7 7 7 7 7 6 6 4 3 1 2 1 2 1 2 4 1 3 8 12 11 11 10 10 9 10 11 10 10 13
15 14 13 12 13 16 15 14 14 13 13 12 12 11 12 11 11 10 10 10 10 9 10 10 9 9 9 9 8 8 8 7 7 6 6 6 6 5 5 5 5 3 3 4 4 4 4 5 5 5 5 4 4 5 6 6 7 8 9 9 7 8 6 5 1 2 0 2 1 1 2 3 1 10 9 12 11 10 10 10 10 11 11 12 12
15 14 12 12 11 15 15 14 14 13 13 12 12 12 12 12 11 10 10 10 10 10 10 10 9 8 8 9 9 8 8 8 8 7 7 7 7 6 6 5 5 5 5 4 3 4 4 4 5 4 4 5 5 5 5 5 6 8 8 6 9 9 8 5 4 3 1 2 2 3 2 0 2 13 9 12 11 10 10 11 11 12 13 13 13
15 16 14 12 12 12 15 14 14 14 13 13 12 12 12 11 11 10 10 10 9 9 9 10 9 9 9 8 8 8 8 8 9 10 10 8 7 6 6 6 5 5 4 4 3 4 3 3 4 5 4 5 5 5 5 6 7 7 7 8 10 11 10 4 4 2 3 3 3 4 2 4 9 13 12 11 11 10 11 11 12 12 13 14 14
16 15 14 12 12 12 11 13 15 14 13 12 12 12 11 11 11 11 10 10 9 9 9 9 9 9 9 9 9 8 8 8 6 6 7 7 7 7 7 7 6 6 6 4 5 4 3 4 4 4 4 4 4 4 5 6 7 8 9 9 11 11 11 8 3 3 2 2 3 4 3 3 12 13 13 12 11 11 11 11 12 12 13 13 14
15 14 14 13 13 11 11 10 12 15 13 12 11 11 11 11 11 10 10 10 9 9 9 8 8 8 8 7 7 7 7 7 6 6 7 6 6 6 7 6 7 7 7 6 5 5 5 4 3 3 4 3 4 4 4 6 7 9 10 12 12 12 11 9 2 3 3 4 4 3 4 2 11 14 14 13 12 13 12 12 12 12 12 13 14
14 13 13 12 11 11 10 11 11 10 9 11 11 11 11 11 10 10 10 10 10 9 9 9 8 8 8 8 7 7 7 7 7 7 6 6 6 6 6 6 6 7 6 5 5 4 4 3 3 3 3 3 4 3 5 5 6 8 10 12 13 12 11 11 5 6 6 6 4 5 4 6 14 14 14 14 13 13 12 13 12 12 12 13 13
13 12 12 12 11 11 11 10 10 9 10 8 7 9 11 11 10 10 10 10 10 10 10 9 9 9 8 9 8 8 8 8 8 7 7 7 7 7 7 6 6 6 6 6 5 5 4 3 4 3 3 4 4 4 4 5 5 7 9 10 12 13 14 10 7 3 3 3 6 5 4 11 13 14 15 15 14 13 13 13 13 12 11 12 13
10 11 11 10 10 10 10 9 9 10 9 8 8 8 10 12 11 11 10 10 10 10 10 10 9 9 9 8 9 7 7 7 9 8 9 8 8 8 7 7 7 7 7 7 7 6 5 5 4 4 5 4 5 4 4 4 7 7 7 9 10 13 8 6 6 4 2 3 4 4 8 16 16 15 16 16 14 13 13 13 13 13 12 12 12
8 9 8 8 10 10 11 8 9 11 10 9 8 8 9 11 10 11 11 10 10 10 9 9 9 8 8 9 8 6 5 5 7 7 10 7 8 8 8 8 8 8 8 7 7 7 7 6 6 6 5 5 5 4 5 5 6 6 7 7 10 6 6 5 4 4 3 4 5 4 13 16 17 18 17 17 15 13 13 13 13 13 13 12 12
9 8 8 9 9 10 11 10 8 10 8 8 7 7 7 9 8 8 8 8 9 8 7 6 7 6 9 7 6 5 5 4 5 8 6 8 8 10 10 9 9 9 9 9 8 8 7 7 7 6 5 4 6 3 3 5 6 5 5 7 5 4 5 5 6 5 6 4 4 4 13 14 16 17 17 16 15 14 13 14 14 13 13 13 12
9 8 7 9 8 8 10 10 10 10 11 8 7 7 9 7 8 7 6 9 7 7 6 6 5 5 6 6 4 4 6 5 3 6 6 10 8 11 11 11 10 10 9 9 9 10 9 8 7 7 5 5 3 2 2 2 2 6 5 4 3 4 5 6 5 4 6 4 4 8 14 16 16 18 17 17 16 14 14 13 14 14 13 13 13
10 9 9 8 7 8 10 9 10 10 10 7 6 8 7 6 6 7 6 5 5 6 6 6 6 6 8 6 6 6 5 2 7 7 6 5 5 11 12 11 9 9 9 5 8 9 8 8 7 7 5 3 3 3 2 3 1 1 2 3 4 5 5 5 5 4 6 6 5 9 14 17 18 17 17 17 16 15 14 14 14 14 14 13 13
9 9 8 10 10 10 10 10 10 9 9 7 7 7 7 7 5 6 6 6 6 6 6 7 6 7 6 6 6 6 6 6 5 4 3 1 2 3 1 3 3 4 4 2 4 6 5 4 3 4 3 3 3 2 1 0 2 2 1 2 2 4 6 6 6 6 6 6 5 10 15 17 17 17 17 17 16 15 15 14 13 15 14 13 13
9 8 9 10 11 10 11 10 11 9 9 6 8 7 8 6 6 6 6 6 7 6 6 5 6 7 7 6 4 7 9 6 4 4 4 3 1 5 2 2 3 3 2 2 1 2 3 3 4 3 3 4 4 2 1 1 2 3 3 3 5 5 4 5 6 6 5 4 5 10 15 17 17 16 17 17 16 16 15 14 13 14 14 13 11
9 9 9 9 10 11 11 11 10 10 11 9 6 6 6 5 6 6 6 5 5 6 6 5 6 6 6 6 7 6 4 8 4 2 2 2 2 2 3 1 2 2 2 2 3 3 3 2 3 2 2 5 4 2 1 2 2 3 3 3 2 3 4 4 4 5 4 4 6 14 14 15 17 17 17 16 16 16 15 15 14 13 14 14 13
7 10 10 10 9 12 11 11 9 9 7 9 8 6 5 7 6 5 5 7 6 6 6 7 6 4 3 2 3 2 3 2 4 11 10 8 7 5 2 3 3 2 2 3 2 3 2 2 2 1 3 5 5 4 3 3 3 2 2 3 3 3 2 2 5 4 4 5 4 13 15 16 17 17 17 17 16 16 16 15 15 14 14 15 16
9 11 9 11 11 11 12 12 11 10 8 8 8 5 4 5 6 4 4 3 3 4 3 2 4 4 4 3 2 4 3 4 3 3 3 6 5 6 7 7 5 4 4 4 3 3 2 3 3 2 2 3 4 4 4 4 3 4 3 4 4 4 3 5 4 4 4 4 5 8 16 17 16 17 17 17 16 16 16 15 15 16 15 15 15
9 10 10 9 10 13 12 13 12 10 9 9 5 5 4 3 4 4 3 3 3 2 2 3 3 3 6 4 4 2 4 5 5 5 4 4 4 2 2 3 4 4 3 2 3 2 2 3 3 3 3 3 4 4 4 3 4 3 4 4 4 3 3 2 3 4 2 3 6 7 18 17 17 17 17 17 17 16 16 16 15 15 16 16 15
9 10 10 10 8 12 11 13 11 9 9 9 6 5 4 3 3 4 3 3 3 2 0 2 3 4 3 4 1 2 3 5 5 2 4 2 3 3 2 2 3 3 3 2 1 1 1 4 5 3 4 5 5 4 3 3 1 3 4 3 3 3 3 3 4 2 4 5 2 3 11 18 17 17 16 17 17 17 17 16 16 15 16 17 16
7 8 8 9 11 12 11 12 12 10 8 10 5 7 5 3 3 2 3 4 4 2 2 3 2 3 7 3 3 2 2 3 5 4 1 3 3 3 3 2 2 2 3 2 1 0 2 4 5 4 4 4 4 4 3 3 2 3 3 3 2 2 3 3 4 5 5 6 5 5 5 9 17 17 17 17 18 18 18 17 16 16 16 16 17
4 3 6 10 12 11 10 8 10 8 7 9 8 7 5 5 5 4 3 5 3 2 3 3 2 2 3 3 3 2 0 3 3 1 3 3 1 1 1 3 3 3 1 2 3 2 0 4 6 4 1 1 4 4 3 3 3 3 2 3 3 5 3 2 2 3 3 2 6 8 7 7 9 16 18 17 18 18 18 18 18 18 17 17 17
4 3 1 9 9 5 7 7 7 9 5 5 6 6 6 5 4 4 3 3 3 3 3 3 1 2 1 4 2 2 1 3 3 4 4 2 3 2 3 3 2 1 2 1 2 2 3 4 3 3 3 1 5 5 4 3 2 1 2 3 4 4 2 2 3 3 4 4 5 5 5 7 7 7 10 18 18 18 19 19 19 19 19 19 18
4 4 4 5 1 6 7 6 5 8 7 3 8 4 5 5 4 4 4 3 3 3 4 3 3 3 2 4 4 3 2 2 4 4 4 3 4 2 2 2 1 1 1 1 1 1 1 2 1 1 2 1 4 2 2 4 4 4 3 4 3 4 2 4 4 2 3 4 5 5 3 3 5 7 8 8 15 19 19 19 19 19 19 19 20
5 5 7 5 5 8 8 8 3 7 6 4 3 3 4 4 4 3 2 5 3 3 2 1 2 2 5 4 4 3 3 5 2 3 3 3 4 4 1 2 3 2 0 1 1 1 2 2 2 0 2 3 3 4 4 5 4 5 4 2 2 3 4 4 3 3 3 3 2 4 3 4 5 6 8 8 8 12 21 20 19 20 19 20 20
7 6 8 7 6 9 9 9 7 6 7 6 3 4 2 3 2 3 4 4 3 2 0 2 2 2 6 3 4 3 2 3 1 2 3 4 4 6 6 3 4 4 3 3 3 1 1 3 0 3 2 4 4 5 3 3 4 5 5 4 4 2 4 4 3 2 1 2 5 5 5 4 4 9 7 7 8 8 17 22 21 21 21 20 20
8 7 4 3 4 7 4 7 6 4 5 5 4 3 3 3 2 3 2 3 3 2 2 2 2 3 4 4 1 1 2 1 1 3 2 3 3 6 3 4 4 4 2 2 3 1 1 1 2 2 3 5 4 4 4 3 5 5 4 4 4 5 5 4 3 2 1 2 2 2 3 5 6 4 5 6 7 7 8 18 24 23 23 22 22
7 7 7 4 3 4 4 4 6 6 4 5 5 5 4 3 2 3 2 2 2 2 2 2 1 1 1 4 3 1 1 1 2 1 1 2 4 2 4 1 5 3 1 1 1 1 1 2 2 1 2 5 6 3 6 2 1 1 2 3 4 5 3 3 1 2 1 2 2 3 2 3 3 3 3 3 4 5 7 7 10 11 14 25 22
8 7 8 7 5 5 3 1 4 4 5 4 6 4 4 5 5 4 3 2 3 2 1 2 0 1 1 2 1 2 1 3 2 1 2 3 3 4 5 4 3 2 2 2 0 2 2 2 1 1 2 4 5 4 3 2 2 1 2 2 3 4 4 3 3 3 2 2 2 2 2 1 3 3 4 4 5 7 6 7 8 9 9 17 24
10 9 8 9 8 7 5 4 2 1 2 4 5 6 6 6 5 5 4 4 3 3 3 2 2 0 2 1 1 0 2 3 3 2 1 2 4 4 2 2 1 2 0 1 2 3 3 0 1 3 2 6 1 5 3 1 2 2 1 3 3 3 2 3 4 4 3 3 2 2 2 2 3 5 5 6 6 5 5 6 6 7 9 8 13
10 9 10 9 8 7 7 6 3 4 3 4 4 6 5 4 4 4 3 4 4 3 3 3 2 2 2 1 2 2 2 2 2 3 5 5 5 2 0 3 4 3 1 2 3 3 2 3 1 2 6 5 2 3 3 2 2 2 2 2 2 1 2 4 4 4 4 3 3 3 3 3 4 3 4 4 3 3 4 5 5 7 8 8 8
9 9 7 8 8 7 7 6 5 4 6 7 5 5 3 4 4 4 4 2 2 2 2 3 2 2 0 1 3 4 4 3 2 1 3 4 2 1 2 2 2 3 2 1 2 3 2 2 4 6 1 2 3 4 2 1 2 3 3 3 1 2 0 2 3 4 5 4 4 4 4 5 6 5 4 3 2 3 3 3 5 7 7 8 8
9 5 2 5 4 4 5 4 6 6 6 6 4 3 3 3 3 3 3 3 3 3 2 1 2 2 4 4 3 4 4 3 2 3 3 2 2 1 2 2 2 1 1 2 1 2 0 4 10 4 2 3 3 3 3 4 4 4 1 1 3 3 5 2 0 0 3 5 5 5 4 5 5 5 4 5 4 4 4 3 6 6 8 9 8
10 5 1 3 3 6 6 5 4 5 4 4 5 4 4 4 3 5 5 5 4 2 2 4 4 3 3 2 3 3 3 3 1 3 2 2 2 2 3 1 0 2 1 3 4 4 8 7 4 2 0 2 1 2 3 4 5 5 2 1 1 3 3 4 2 1 2 2 4 5 5 5 5 5 5 4 5 5 5 6 5 5 5 6 7
8 8 7 6 5 6 6 7 6 7 6 5 6 5 5 6 4 5 4 3 2 3 4 4 4 3 0 2 1 2 2 1 1 2 1 2 2 3 2 2 2 2 3 4 5 6 6 2 3 2 2 3 2 1 4 3 5 6 6 5 3 0 2 3 3 2 1 2 4 5 4 5 4 4 4 5 5 6 5 6 6 7 7 7 7
7 8 10 9 3 4 10 5 5 5 5 6 7 4 2 2 4 3 4 1 2 3 0 3 2 2 0 2 2 1 2 3 2 2 2 3 2 1 1 2 2 2 4 6 6 2 6 6 2 2 3 2 2 2 3 3 4 4 6 7 9 8 6 3 1 3 4 1 2 4 4 3 4 5 6 7 6 6 6 7 7 7 7 7 7
8 8 13 11 17 16 12 7 6 6 6 4 5 5 5 3 3 4 4 2 4 1 2 1 2 2 1 2 2 2 3 3 3 3 2 1 2 1 1 1 2 5 4 5 4 1 2 3 3 1 2 3 2 3 3 4 3 5 9 7 8 6 9 8 7 6 1 4 2 2 5 6 4 6 7 7 7 7 8 7 7 8 7 7 7
7 6 5 7 8 7 7 6 5 5 7 7 3 1 4 5 4 3 3 3 2 0 1 2 1 1 2 2 1 3 3 4 3 2 1 1 2 2 1 3 4 5 4 5 6 4 2 0 2 4 2 2 2 3 2 4 4 6 2 5 4 6 7 7 9 8 7 4 4 4 4 5 6 7 7 8 8 7 7 7 7 8 7 6 6
7 4 5 8 7 7 6 6 6 5 6 7 6 5 4 3 4 1 3 3 2 3 3 3 1 1 2 2 2 3 3 3 3 2 2 3 3 3 4 5 5 4 6 3 9 7 6 2 1 6 4 2 2 4 5 4 4 3 5 3 2 5 7 6 6 6 3 3 4 4 5 6 6 6 7 8 9 9 8 7 7 7 7 6 6
5 5 7 7 6 5 5 4 6 4 7 8 8 8 7 7 4 5 5 6 5 3 3 3 3 2 2 3 3 4 3 4 2 4 4 4 4 4 4 2 2 3 7 8 5 6 5 7 8 6 2 3 4 7 7 6 5 3 7 4 4 5 2 2 5 7 6 5 5 6 5 7 9 6 7 10 9 10 8 7 8 8 8 7 6
Wind_Direction
119 118 116 117 117 114 112 113 110 114 115 117 109 107 106 123 129 129 128 131 132 133 134 135 134 133 131 129 128 127 121 120 119 117 112 110 108 106 105 105 105 95 106 99 86 87 98 95 84 81 79 76 76 75 73 79 82 78 81 83 85 89 93 96 98 94 89 83 82 90 91 92 91 90 99 98 99 100 101 103 99 93 98 107 108
129 121 120 121 118 115 114 112 110 109 110 112 112 112 115 117 129 128 129 132 132 134 137 139 138 135 133 132 132 131 129 129 127 123 120 110 108 108 111 106 105 99 79 92 92 86 78 79 72 80 79 72 68 65 66 76 93 97 97 89 86 95 104 105 108 108 102 92 89 91 98 94 89 98 101 94 92 98 103 106 100 92 98 112 108
124 120 121 123 122 120 116 114 113 113 116 113 113 119 122 134 124 125 129 131 133 137 137 138 138 136 134 133 131 133 134 135 135 130 118 107 101 89 90 96 90 82 81 85 82 74 75 75 78 71 66 69 63 62 66 73 97 110 104 103 98 92 103 108 110 114 112 108 107 104 102 98 95 97 101 94 95 99 105 97 91 100 110 107 105
123 121 120 123 125 123 120 117 116 115 114 116 118 121 121 124 124 124 127 129 134 135 138 139 137 140 138 137 136 134 135 123 107 114 120 121 113 108 103 99 104 91 75 80 79 68 61 70 71 71 70 66 74 72 74 85 95 101 102 108 100 90 95 109 109 110 117 118 119 116 106 100 104 108 103 100 100 107 106 97 98 109 109 105 106
121 121 124 127 126 125 122 119 117 116 114 112 113 114 115 114 112 108 111 122 129 133 135 138 141 138 135 139 135 134 130 123 113 113 126 135 126 122 128 120 127 108 105 75 69 62 54 53 49 55 56 67 71 90 105 105 106 101 94 118 107 105 93 101 108 108 123 132 139 142 119 104 109 114 111 102 103 109 102 103 110 113 113 111 109
124 128 129 129 125 125 123 119 118 117 114 113 112 112 113 110 112 109 113 114 115 113 123 131 135 139 139 142 133 136 133 135 129 127 128 145 147 138 135 143 140 127 126 88 39 30 18 39 21 359 347 297 75 72 110 129 143 112 127 135 111 106 107 97 99 121 128 151 161 253 115 118 117 119 119 112 113 113 112 117 117 118 118 116 114
129 132 129 126 125 125 124 120 118 118 118 115 112 113 113 115 115 113 117 118 118 122 123 118 120 135 138 130 119 128 129 139 142 145 140 154 149 148 140 157 141 147 175 239 312 325 296 302 308 293 262 252 237 179 175 155 172 168 175 184 355 32 104 112 115 142 163 167 255 278 118 123 115 109 129 123 122 121 122 123 124 125 124 122 119
131 126 126 125 124 127 125 121 121 120 120 119 117 117 119 121 118 115 127 126 126 124 128 127 130 135 135 136 134 133 132 134 142 143 148 158 158 151 168 161 164 180 213 266 270 276 283 283 282 246 241 247 234 217 187 213 198 179 195 191 238 319 21 122 132 194 171 263 286 238 129 121 109 112 136 132 131 128 130 130 130 131 130 126 116
125 123 121 122 126 128 127 126 124 124 122 122 122 122 121 122 123 133 137 133 128 128 127 125 130 131 133 136 139 134 137 140 145 138 148 153 159 156 163 166 160 173 211 252 273 268 280 259 247 258 251 251 246 238 189 218 217 182 96 271 230 254 277 218 188 231 243 250 343 308 90 107 118 125 143 141 138 135 134 133 132 136 134 119 134
117 117 120 122 129 130 129 128 127 127 125 124 125 125 124 124 125 129 133 133 129 131 136 133 134 132 133 134 131 133 138 137 137 143 156 157 156 159 170 181 157 191 201 228 321 311 301 269 273 267 266 251 237 233 233 229 213 175 172 231 241 239 304 294 200 238 268 20 14 333 118 126 120 132 152 146 143 143 142 147 144 143 137 143 142
117 120 122 125 127 129 130 129 128 127 128 128 128 127 128 127 129 131 130 131 130 131 129 128 130 133 131 133 134 137 137 138 139 147 155 153 167 169 164 185 160 214 218 280 275 276 273 281 271 263 258 254 245 238 229 220 208 202 200 220 219 234 247 247 237 304 33 25 12 344 320 161 137 123 157 152 149 151 153 148 146 142 145 148 118
120 122 121 120 128 129 130 130 128 129 129 128 130 131 130 129 129 129 128 126 128 124 124 123 126 129 133 136 137 135 141 143 147 151 159 161 189 167 170 179 161 178 208 230 236 235 263 254 262 257 259 254 248 244 228 221 208 199 202 215 210 228 235 237 208 52 73 69 29 317 326 279 110 134 159 158 157 158 153 152 145 144 147 143 136
121 120 121 127 130 130 131 132 129 130 132 134 132 132 133 132 131 129 127 126 125 126 124 124 125 129 132 133 134 138 143 148 156 160 164 167 170 169 176 173 174 186 220 223 227 233 237 246 247 253 256 252 253 243 234 224 220 199 197 202 210 223 217 207 169 195 29 110 227 249 281 336 144 144 164 164 162 160 153 151 148 147 143 140 143
125 126 131 131 132 132 130 130 132 133 136 137 140 135 135 133 133 131 128 129 127 127 126 126 131 133 134 139 140 148 156 163 165 168 174 172 172 171 167 171 190 177 192 210 220 235 232 234 245 252 247 242 235 232 219 205 212 212 196 184 205 217 217 213 180 210 203 165 224 213 209 140 233 154 169 167 163 158 157 155 154 151 147 144 146
128 132 131 130 133 132 132 132 134 137 136 139 137 136 136 136 136 134 132 131 130 127 128 131 138 141 144 150 152 159 168 172 179 178 177 169 171 172 168 178 178 190 206 186 224 221 226 240 242 247 249 243 239 232 212 205 210 211 200 202 202 213 212 202 194 209 192 179 219 227 204 198 175 158 167 168 167 167 163 159 158 155 152 149 150
131 129 130 137 132 133 134 137 137 138 138 140 140 139 139 139 138 138 138 135 134 134 133 136 139 143 144 145 155 159 164 166 159 156 158 163 163 173 180 184 184 194 202 203 213 219 213 220 227 231 242 244 240 238 227 209 213 209 199 196 210 209 204 193 179 189 183 182 193 219 223 207 177 159 164 172 172 169 163 162 162 159 156 154 153
125 132 136 135 138 140 137 142 141 140 142 143 144 143 143 140 141 143 142 141 141 141 141 142 141 143 144 145 151 157 159 163 166 162 166 170 174 173 179 191 188 196 203 210 209 199 205 218 234 243 245 247 237 240 226 208 213 209 204 194 203 205 203 208 194 165 194 216 187 216 210 188 180 163 166 173 171 167 165 164 166 163 160 159 158
129 132 133 139 143 138 143 141 144 146 145 148 149 147 145 144 145 146 148 149 149 150 150 151 152 153 155 162 163 170 171 173 177 177 179 179 183 191 193 194 201 202 211 212 218 212 206 223 235 238 240 247 240 233 227 218 210 207 207 198 192 197 190 208 215 198 185 196 182 210 192 192 177 171 169 171 172 170 167 166 168 164 165 165 165
127 136 138 143 142 144 143 144 152 150 150 152 152 152 150 150 151 155 156 158 158 157 161 160 163 164 168 173 179 178 185 185 183 187 187 193 196 197 205 202 208 218 212 223 228 219 222 229 224 224 233 237 239 222 224 226 217 210 211 209 197 188 185 190 222 194 188 197 186 190 218 174 176 180 173 171 175 173 170 167 169 169 171 169 169
129 136 145 141 146 148 144 151 158 152 158 155 152 154 158 156 157 160 163 164 166 168 168 170 170 174 177 181 187 190 193 197 194 193 195 199 205 205 202 209 214 215 219 223 221 220 225 225 223 219 219 222 227 226 222 220 218 211 219 214 202 188 188 184 201 155 185 217 194 187 185 174 180 187 177 174 176 177 173 170 170 169 174 174 177
131 135 139 149 148 151 151 154 160 158 160 146 154 155 162 163 162 165 168 169 173 176 176 177 178 183 187 192 194 201 199 209 199 204 195 201 205 213 212 212 211 215 222 227 226 230 228 225 223 223 225 220 232 227 218 214 209 212 216 216 202 181 171 180 195 169 195 212 195 216 167 177 179 183 178 175 176 178 177 174 168 170 177 179 185
140 139 150 163 157 151 155 156 161 153 153 144 158 159 159 169 167 167 172 174 176 181 183 186 190 190 198 194 201 205 205 214 193 212 188 202 203 198 197 206 210 216 213 215 219 229 232 231 229 228 228 226 223 220 219 217 212 216 215 207 187 178 162 187 188 188 201 196 185 217 168 180 181 182 178 176 176 178 183 178 173 172 177 181 189
144 147 161 167 159 150 153 157 162 152 153 149 161 154 162 171 167 172 177 176 182 185 190 198 191 200 192 197 200 204 211 209 194 215 177 202 196 193 202 203 206 212 218 218 220 221 229 228 235 234 240 238 231 210 202 156 236 208 212 198 175 182 186 190 195 162 195 193 172 217 179 184 183 184 177 177 177 178 181 186 173 176 175 184 187
150 157 165 157 161 159 152 159 162 156 152 162 162 157 166 176 171 177 168 185 180 191 198 204 194 202 197 201 198 204 206 175 217 206 180 188 198 190 203 208 213 219 220 233 234 231 239 238 239 240 248 246 242 235 186 156 198 67 180 184 169 193 184 187 202 185 210 190 182 196 178 182 188 180 177 178 178 181 181 185 184 175 176 187 191
153 157 160 156 167 164 156 153 157 168 152 157 165 163 167 177 178 175 170 185 185 188 193 193 190 199 201 192 188 190 194 195 210 174 189 186 192 195 20 29 289 352 342 349 334 303 251 233 240 230 238 254 252 244 271 237 168 133 144 203 203 182 193 188 197 197 217 181 184 181 184 185 185 182 179 181 182 183 185 184 188 184 177 188 196
152 153 169 155 167 164 161 157 160 166 159 173 167 166 167 180 177 179 174 183 184 183 200 183 192 189 212 186 172 211 168 206 185 184 170 167 160 90 178 166 76 162 202 283 259 235 307 331 330 295 294 247 257 253 185 219 213 188 188 193 192 172 209 198 177 212 191 187 182 183 185 189 184 183 183 183 185 187 187 187 188 188 183 185 196
156 155 167 159 168 163 162 158 164 165 167 181 169 169 181 184 169 188 175 179 180 180 201 194 183 186 216 199 203 204 185 155 146 350 331 200 159 136 122 59 77 109 170 153 257 293 275 253 218 180 279 283 273 256 230 222 207 198 205 214 176 201 190 164 209 187 193 176 175 176 177 192 189 185 185 184 188 188 187 190 190 190 190 189 191
169 150 166 164 172 166 157 163 167 165 174 162 164 167 183 183 171 184 189 175 194 188 187 188 158 184 221 234 234 227 212 219 181 169 185 193 168 149 94 197 163 164 180 180 179 252 240 270 273 178 227 228 242 241 229 225 210 215 215 201 208 198 192 197 185 190 195 170 159 181 179 192 192 189 187 186 189 189 189 193 192 194 195 196 191
188 157 165 166 177 161 161 164 162 167 175 162 169 174 192 186 161 178 204 162 209 179 194 151 156 174 190 245 250 275 268 246 206 212 81 67 75 109 154 160 166 176 177 177 174 176 214 216 215 180 210 225 241 227 226 237 204 221 202 215 192 198 207 193 193 193 199 174 166 188 188 191 191 191 193 191 191 192 190 193 196 198 198 197 197
178 164 169 160 181 151 171 161 161 172 173 165 176 174 160 216 142 172 187 126 247 259 152 158 223 188 176 196 196 269 322 324 319 72 110 110 108 104 111 148 156 176 176 169 160 195 211 256 214 198 212 252 241 216 219 239 223 230 221 211 196 187 184 175 139 198 194 205 183 182 195 191 191 193 192 195 194 196 194 196 197 201 204 202 200
166 172 169 157 179 153 178 158 164 173 171 169 179 150 149 207 165 179 169 161 218 250 35 272 242 203 83 135 128 127 292 281 278 33 104 101 101 120 160 187 159 160 155 108 86 217 146 229 259 176 183 217 245 240 226 239 220 297 276 225 217 185 195 168 165 175 148 246 248 180 191 195 193 194 194 196 198 198 197 197 199 203 206 207 204
173 183 163 165 171 167 179 155 163 180 166 175 167 146 167 183 187 180 177 176 201 188 200 238 232 319 113 145 119 273 253 299 325 328 53 121 130 138 171 163 137 113 98 109 123 237 104 329 273 226 180 205 228 234 227 233 217 229 258 270 253 262 199 183 155 175 196 183 103 281 208 195 197 196 197 196 200 201 200 201 202 204 208 209 209
188 191 168 179 166 178 159 152 161 187 174 176 163 146 173 179 189 186 201 187 161 224 232 208 250 166 216 133 135 210 48 266 292 354 340 50 42 56 123 83 69 81 136 166 157 222 124 198 231 233 179 286 265 247 230 224 220 223 264 305 304 254 233 195 183 159 153 186 164 192 197 190 193 201 199 199 202 205 207 208 208 207 208 208 210
196 173 266 186 162 182 128 152 146 165 187 163 163 148 176 194 173 199 219 175 177 201 234 264 263 11 345 142 168 232 333 344 329 354 1 328 327 343 61 98 99 99 114 222 160 185 188 223 209 229 205 239 301 294 318 291 306 262 97 326 277 273 295 243 225 164 174 179 201 215 191 179 189 189 199 202 202 205 208 210 211 210 211 209 209
203 164 199 250 314 114 127 154 140 152 181 212 147 169 175 189 186 197 200 156 206 222 219 205 201 193 217 85 71 56 41 308 8 0 342 330 310 71 79 87 133 139 151 92 28 311 3 318 246 191 158 184 252 292 301 281 277 249 161 197 250 283 272 237 219 167 185 176 190 204 174 142 191 186 191 196 206 206 207 211 213 212 212 213 211
222 173 186 222 260 111 123 146 159 140 178 229 154 181 171 211 176 210 221 146 220 227 247 268 252 193 93 93 78 67 22 360 356 26 333 331 336 350 82 57 30 356 335 26 306 200 345 322 313 268 293 254 236 236 201 228 248 281 241 150 228 243 272 265 233 208 198 138 150 166 172 175 214 198 192 194 197 205 207 208 212 212 213 214 213
200 239 168 184 221 124 138 149 175 176 168 198 175 172 161 223 265 189 219 134 208 270 71 258 247 22 81 66 50 56 25 213 9 28 348 345 342 8 14 28 24 347 19 20 283 352 333 301 26 7 308 295 258 246 204 223 225 238 229 205 178 220 254 263 260 241 274 181 182 164 175 187 206 212 197 198 194 195 207 207 208 210 211 212 213
191 204 160 176 198 124 161 147 163 199 168 170 170 175 185 212 215 283 202 164 183 248 238 215 357 52 110 102 142 188 182 87 64 40 15 337 348 49 18 21 349 299 44 332 298 350 304 268 338 8 312 287 283 258 249 241 216 216 218 203 219 208 206 220 235 335 311 260 231 169 185 185 199 218 207 211 203 198 195 208 209 210 212 212 211
184 179 159 165 179 119 134 153 160 179 198 170 167 176 186 193 222 224 214 148 149 226 355 14 271 147 80 106 136 127 66 25 46 54 330 347 359 64 100 315 221 218 154 189 245 247 67 226 201 286 338 280 279 255 252 208 161 186 249 225 225 222 211 223 234 261 295 312 315 247 204 174 209 223 236 262 227 201 201 192 202 208 214 215 213
179 173 159 168 165 146 105 85 154 183 183 193 171 185 181 188 210 198 177 169 187 181 184 261 260 42 87 82 64 77 355 63 17 342 350 10 324 276 134 193 283 228 168 194 295 294 302 351 69 122 185 259 244 256 233 218 178 177 254 197 201 227 194 212 205 215 232 264 268 296 271 91 202 221 222 232 239 209 203 200 193 203 210 217 215
170 169 159 181 174 171 154 166 148 92 141 191 184 189 192 183 210 176 183 165 183 192 176 204 161 141 37 16 16 12 206 164 195 127 61 305 284 294 134 127 255 278 222 168 99 310 267 217 116 284 131 260 49 295 283 262 70 133 185 244 216 183 196 215 230 223 208 209 255 273 261 234 205 198 221 224 223 220 186 192 191 198 208 212 215
172 174 172 180 176 174 168 172 165 169 208 222 201 197 194 184 173 178 166 164 175 188 180 173 157 174 112 59 324 280 276 266 228 174 147 227 217 184 225 195 186 215 192 206 229 201 290 247 148 228 218 230 92 274 271 296 24 37 8 343 315 98 206 236 231 242 217 211 210 219 236 246 247 235 224 216 224 225 212 205 201 204 206 212 213
162 159 165 167 170 185 190 172 179 185 205 208 202 192 173 157 175 171 176 145 71 90 48 29 77 79 277 264 253 251 253 235 204 189 151 196 174 154 227 216 195 199 190 137 209 154 141 25 352 250 123 263 174 195 193 92 46 13 22 322 343 323 171 221 221 229 217 201 207 216 222 233 242 235 222 239 223 230 237 223 205 211 213 216 219
93 80 80 158 143 156 188 174 187 197 212 208 203 192 141 120 112 108 87 98 120 113 112 152 236 223 226 227 230 241 233 253 276 107 119 122 131 223 248 244 252 181 157 134 192 298 132 146 232 234 169 164 177 172 174 169 141 155 64 320 341 8 323 316 117 252 204 209 204 217 218 225 233 240 199 219 223 215 217 220 226 214 212 219 218
117 109 221 273 190 210 208 193 215 227 221 218 196 179 132 127 116 101 90 78 59 57 166 222 211 209 250 237 264 230 224 271 35 107 136 147 163 192 255 254 257 280 208 194 199 198 228 212 193 234 118 78 40 159 201 172 164 164 121 133 55 5 326 313 38 254 196 240 245 227 225 234 240 242 227 217 218 229 218 221 229 235 231 229 221
72 136 176 240 253 260 217 189 187 223 231 220 216 198 168 151 153 137 130 126 135 185 206 215 204 210 148 3 308 353 344 263 164 112 187 206 197 193 243 238 252 250 260 216 223 229 210 137 55 20 18 62 324 189 207 207 183 168 150 142 82 73 272 322 345 314 318 274 316 281 232 222 230 242 240 234 221 224 222 229 225 227 229 229 229
158 155 158 173 231 217 255 220 179 183 213 202 202 202 146 199 179 134 106 104 201 202 285 31 14 81 115 258 105 325 271 290 302 200 229 221 231 253 234 246 262 268 255 262 249 250 12 87 79 26 31 296 272 272 350 178 174 171 173 180 155 163 162 144 28 301 320 342 228 276 294 265 245 244 246 238 223 226 225 225 227 228 217 221 225
164 184 156 170 169 183 204 205 190 171 180 160 158 195 174 170 157 136 90 214 241 272 24 4 8 4 7 47 325 259 262 269 266 266 241 218 242 263 287 286 260 258 246 253 270 154 204 92 109 166 219 225 303 336 333 329 300 154 197 171 176 177 167 168 175 147 200 291 297 288 278 279 251 243 249 250 237 224 228 223 229 229 223 218 211
167 179 164 154 141 143 149 175 174 170 161 160 118 265 226 176 146 75 162 245 271 276 249 279 186 196 231 173 257 255 259 249 248 244 177 229 214 222 212 232 247 251 248 249 263 17 359 259 177 203 161 83 2 299 1 358 332 1 351 171 169 178 179 185 173 161 177 202 244 220 217 196 223 227 224 234 239 231 222 223 224 227 236 227 218
151 141 117 104 127 132 153 156 143 162 162 161 145 181 190 134 100 121 190 233 249 212 215 233 200 107 29 355 275 275 269 262 231 206 195 207 205 214 221 223 228 254 260 7 22 10 355 217 204 54 10 12 39 354 355 336 360 347 315 288 243 213 181 175 187 172 189 200 211 220 210 210 231 235 214 218 222 231 232 227 219 228 233 233 224
117 116 117 112 117 122 134 133 121 121 149 156 149 160 165 100 101 190 183 198 219 237 208 203 161 155 170 255 231 237 231 243 224 171 213 194 195 201 221 228 280 323 20 13 8 12 354 1 4 17 326 20 41 34 6 358 339 346 322 320 304 298 310 219 189 172 174 183 215 216 204 214 223 232 217 211 212 216 220 215 217 220 219 226 225